Theta_e
323 323 323 324 324 325 325 326 326 327 326 326 325 327 327 327 324 315 310 315 318 327 323 314 313 313 316 313 314 312 303 302 302 301 303 306 304 306 306 306 306 307 307 306 310
320 321 322 323 323 324 324 324 325 326 326 325 325 326 327 326 317 312 321 324 325 327 313 311 311 312 311 311 311 308 304 303 306 305 304 305 305 306 302 303 305 305 308 304 306
318 318 320 321 322 323 323 324 324 325 325 325 324 325 325 323 311 312 325 326 325 322 314 312 312 311 309 310 309 307 303 305 306 306 305 305 304 307 303 303 306 306 308 304 304
317 317 317 318 320 322 323 323 324 324 324 324 324 325 324 318 302 312 325 324 324 318 312 310 310 308 307 306 309 303 307 306 306 305 304 303 306 303 304 306 309 310 311 307 304
317 316 316 316 318 320 321 322 323 324 324 324 324 325 319 310 309 314 319 318 315 312 310 309 309 309 305 307 306 303 306 305 306 305 304 305 303 304 305 309 310 308 306 307 304
316 316 315 316 317 319 320 321 322 323 323 323 323 323 314 303 314 314 311 311 311 311 309 310 309 310 306 305 304 305 304 304 306 305 304 301 303 302 306 309 308 308 304 305 305
317 316 315 315 316 317 318 320 321 322 322 322 323 320 310 307 315 313 311 310 310 310 308 310 311 308 308 305 306 304 300 304 304 304 302 303 299 301 306 306 305 306 306 305 305
316 316 315 315 316 316 317 320 321 321 322 323 324 317 306 314 317 310 311 309 310 311 310 310 310 309 306 306 303 301 301 297 304 303 302 301 296 304 308 306 303 305 306 305 305
316 315 315 315 316 316 317 319 320 320 322 323 318 314 304 313 310 313 312 307 309 309 310 309 310 307 304 301 300 301 296 298 301 303 301 300 298 304 306 304 303 305 306 306 305
315 315 315 315 315 316 317 319 319 318 318 316 313 307 308 305 310 310 309 310 307 308 306 306 306 302 302 300 293 296 297 298 298 301 300 298 297 302 305 304 303 303 304 306 307
316 315 315 315 315 315 316 312 308 306 309 306 307 306 305 310 311 308 308 306 307 305 300 304 299 297 300 302 301 300 297 296 299 302 298 298 298 300 303 303 303 304 304 305 306
316 316 315 315 315 316 315 306 307 306 298 305 305 305 307 311 305 307 307 302 301 298 302 299 295 301 302 301 300 299 296 296 299 301 296 297 296 300 301 302 303 303 303 304 306
316 316 315 315 315 313 308 307 312 311 300 301 305 303 304 307 303 304 304 303 300 298 299 296 299 300 299 299 296 296 295 296 295 299 296 294 293 296 300 301 302 302 304 304 304
316 316 315 315 311 312 307 310 313 310 293 295 297 302 304 305 298 304 306 303 300 297 298 298 301 299 297 295 297 293 299 298 296 294 290 295 287 296 298 299 299 301 301 303 303
316 316 315 314 309 309 307 311 311 305 284 296 296 305 305 299 299 298 302 301 297 297 298 296 298 295 294 296 298 295 294 295 295 293 292 292 289 293 295 294 295 298 300 304 306
316 315 314 312 312 311 310 309 306 291 283 292 298 297 298 299 297 297 298 301 300 297 298 296 297 297 298 294 296 295 293 292 292 291 285 291 291 291 294 294 298 300 302 304 302
316 315 313 314 308 311 310 305 290 284 293 293 294 297 296 297 296 295 294 293 293 289 291 296 295 297 295 293 293 293 292 288 288 287 285 294 290 293 297 297 298 299 301 302 301
316 315 313 313 315 313 306 296 283 290 293 296 295 296 294 297 296 295 294 292 295 295 292 291 289 295 295 296 296 291 293 289 284 284 287 291 287 292 299 300 300 301 301 300 299
316 313 311 313 313 311 298 286 289 293 296 294 295 291 292 295 295 295 294 294 297 296 290 290 290 292 295 294 297 291 287 295 290 288 285 289 293 298 298 297 298 297 297 298 298
313 310 308 313 308 304 292 288 295 298 297 295 290 293 290 293 292 293 294 298 296 299 299 295 289 293 287 291 291 291 293 288 289 283 281 286 289 291 294 294 296 295 296 298 300
312 302 308 309 307 297 285 287 296 300 297 291 290 292 293 292 294 292 292 297 299 298 298 296 293 290 288 287 290 286 287 287 288 289 284 282 287 295 294 296 296 297 296 298 301
308 296 307 307 294 292 287 292 296 295 295 292 293 292 291 292 291 291 292 296 300 298 291 295 293 288 291 294 292 293 292 291 286 284 286 286 286 296 297 297 297 297 298 300 300
302 301 305 306 290 287 292 292 295 296 295 291 289 291 292 288 286 291 293 297 296 296 293 293 288 284 286 288 287 287 290 290 292 289 285 283 286 296 298 297 297 297 298 299 298
303 293 294 296 299 296 290 291 291 298 296 296 290 292 289 287 290 287 290 295 297 295 295 295 289 287 283 287 290 287 288 290 289 285 285 286 288 293 295 296 298 299 300 300 299
301 297 294 287 289 293 294 293 292 291 296 296 292 289 288 286 287 286 290 292 293 292 293 292 285 288 289 290 290 288 289 290 286 288 285 288 289 293 295 296 298 298 298 298 298
293 297 295 294 296 292 291 290 290 294 295 293 291 293 291 288 290 291 292 290 290 289 289 291 284 286 284 288 288 285 288 289 289 289 289 288 287 295 296 297 296 297 298 297 297
297 295 288 288 291 290 290 291 292 296 297 298 296 293 292 291 294 297 298 298 295 290 287 286 285 283 280 287 286 281 286 288 289 291 290 286 291 296 296 296 297 298 298 298 298
Wind_Speed
16 16 17 17 17 17 18 17 17 14 13 12 12 8 8 8 3 6 8 3 4 4 1 2 5 5 5 4 3 2 6 7 5 4 1 5 10 4 5 7 5 8 7 6 14
15 16 17 17 17 17 16 17 16 15 14 12 12 9 6 7 9 12 6 9 8 7 5 7 5 7 6 3 4 6 6 5 1 3 4 5 10 8 6 12 15 13 11 5 18
14 16 17 17 18 18 17 17 16 15 14 13 12 10 8 6 7 3 8 7 7 8 4 3 4 7 8 4 6 4 6 2 5 6 5 7 8 8 9 16 13 16 16 15 19
14 15 16 17 18 18 19 18 16 16 15 14 12 10 8 5 7 4 6 4 4 5 6 5 6 5 6 8 5 6 10 7 1 3 4 9 5 8 17 19 3 8 10 19 21
13 15 16 18 19 19 20 19 18 16 15 15 12 8 4 7 9 7 6 5 6 4 7 8 9 7 8 5 4 10 9 6 7 6 9 6 12 12 17 18 17 8 5 16 18
13 14 16 18 18 21 21 21 21 18 16 15 11 4 7 12 5 6 6 7 5 8 5 6 5 4 8 6 7 6 9 12 8 11 9 9 13 3 12 13 19 17 15 16 19
11 14 15 17 18 20 22 23 21 19 19 15 8 5 8 14 2 4 7 3 3 4 6 2 1 5 1 6 2 5 9 13 15 12 7 7 11 19 20 7 11 14 16 17 19
13 11 13 16 17 19 22 23 22 21 13 8 6 6 9 2 3 5 7 4 3 3 1 3 2 2 4 2 5 6 5 11 3 10 5 8 17 12 9 10 14 17 16 17 20
11 12 14 16 16 18 21 24 21 10 3 3 5 7 7 4 5 6 6 5 6 4 3 3 3 4 4 7 12 10 13 15 13 14 4 13 15 4 2 8 15 17 17 18 19
9 12 13 15 17 19 22 22 5 5 4 4 3 5 7 3 5 4 3 7 3 7 5 6 6 8 9 11 14 16 15 16 18 10 13 14 22 21 18 17 20 22 22 20 20
9 11 12 16 19 21 14 4 6 6 6 7 1 6 1 3 3 5 5 8 5 7 11 9 10 17 18 20 22 22 21 22 25 8 11 19 22 24 22 20 22 22 21 21 20
9 8 10 14 18 22 11 5 2 3 10 12 14 10 5 2 4 9 8 12 9 16 15 6 18 22 18 11 15 19 21 26 22 8 8 17 22 21 21 24 24 23 22 18 16
10 9 8 11 18 14 6 1 1 2 8 8 8 7 6 11 10 12 16 8 11 16 19 23 18 2 8 16 15 19 21 23 21 12 13 13 17 16 14 17 18 20 20 17 16
10 10 7 11 5 10 5 2 1 2 9 10 9 4 5 4 7 3 11 7 10 13 19 20 20 21 18 20 18 21 17 19 20 11 13 3 15 14 14 17 13 19 18 14 11
11 10 4 3 5 4 8 9 6 4 14 5 6 3 4 8 4 4 2 5 18 11 7 12 10 8 15 24 12 13 2 6 10 14 18 14 18 15 8 10 12 18 18 15 6
12 10 5 4 3 2 2 7 6 10 15 7 8 9 6 8 3 3 5 4 2 11 13 19 2 5 7 3 4 5 3 4 5 8 14 18 20 6 8 7 9 12 15 6 6
15 13 9 4 2 2 2 3 8 15 3 8 9 9 11 11 10 11 9 13 11 8 13 14 23 6 4 6 4 9 7 6 9 9 19 13 15 15 9 11 14 20 19 6 9
17 15 12 10 6 5 3 6 19 9 24 2 1 6 10 13 9 11 9 11 20 16 7 8 10 22 15 21 8 16 13 7 14 16 26 2 15 10 14 16 15 16 7 5 9
17 6 5 9 9 7 6 13 21 18 18 12 6 10 14 10 8 12 16 13 12 21 15 10 12 4 9 2 7 9 10 3 9 3 10 13 22 15 7 12 14 7 5 10 12
4 4 10 13 13 7 6 26 23 16 15 8 26 15 23 21 12 13 14 10 15 18 20 7 14 7 5 3 4 6 2 6 5 8 18 30 22 17 15 18 11 6 10 12 9
7 3 3 15 7 4 8 16 16 21 25 12 21 25 23 23 22 23 18 17 12 9 18 10 9 6 7 12 15 8 8 7 5 9 12 22 10 9 11 8 7 9 8 9 6
4 5 8 14 7 4 10 13 8 18 3 7 12 22 26 24 25 25 26 23 11 5 11 11 5 13 22 8 6 12 20 21 13 17 9 15 35 3 6 2 7 6 6 5 7
4 2 5 7 10 8 7 20 14 13 16 8 13 12 14 17 16 20 21 17 8 9 7 8 5 6 10 8 5 8 13 13 18 14 27 18 31 12 19 12 7 9 9 9 12
4 4 2 5 6 16 19 21 24 18 22 18 10 10 14 18 20 13 22 15 14 6 9 6 4 11 20 24 5 11 20 20 21 18 26 28 30 39 30 25 25 22 22 16 15
4 7 9 7 11 15 10 9 23 18 17 14 9 23 19 11 16 18 27 32 23 3 4 3 17 22 28 33 33 26 15 13 25 26 25 31 24 26 30 26 24 22 28 21 26
5 5 2 10 19 26 25 21 28 26 22 22 24 25 27 22 20 28 21 17 19 1 11 10 12 18 25 28 32 33 29 31 35 27 29 27 30 31 37 33 31 33 33 21 25
3 2 1 3 7 13 21 29 31 30 31 31 29 24 23 30 35 35 26 19 10 10 12 8 8 11 20 25 25 24 41 37 37 39 33 32 40 41 37 31 30 32 26 22 21
Wind_Direction
19 15 13 9 6 4 359 359 357 355 354 350 350 338 325 313 297 201 238 147 125 117 269 184 219 211 214 203 230 246 251 264 277 259 353 140 208 177 0 240 205 198 266 66 148
14 10 8 4 2 358 355 351 348 344 344 344 342 333 321 311 264 255 144 140 144 163 204 213 224 194 225 229 213 241 254 282 337 272 260 191 230 195 215 214 227 232 220 158 155
8 3 360 359 355 351 348 344 337 333 333 334 338 331 317 293 272 244 122 146 157 184 236 242 258 213 246 242 196 191 253 6 243 242 249 245 224 215 229 245 223 232 222 184 182
1 358 354 350 349 346 342 338 332 327 325 324 330 323 318 238 276 103 121 130 160 206 197 193 207 217 243 226 195 257 244 249 299 228 239 238 261 226 227 239 15 263 255 174 198
353 351 348 345 340 339 336 332 328 322 318 315 318 315 271 237 256 131 129 132 155 179 227 224 235 249 250 239 229 250 276 249 243 220 239 257 242 249 256 243 255 213 226 195 205
343 344 342 340 336 334 330 328 325 319 311 306 299 290 239 254 100 138 144 152 206 212 214 229 289 301 294 259 235 356 287 269 253 244 234 232 255 222 253 247 241 229 225 223 213
333 335 335 335 332 332 326 321 319 314 310 300 272 229 239 252 109 148 161 173 177 237 223 212 248 238 16 255 257 279 283 275 244 237 241 208 253 235 251 224 235 235 228 227 223
321 325 328 328 327 327 322 316 313 308 303 288 208 219 256 95 144 171 166 134 142 132 194 148 202 228 244 40 235 258 250 270 116 180 183 200 264 251 240 200 232 243 234 231 227
317 317 321 324 323 321 317 310 306 298 260 162 200 241 256 132 194 168 197 187 143 126 95 144 218 254 188 236 263 205 266 267 252 191 155 210 269 281 162 235 257 255 250 234 231
313 315 319 325 324 322 319 298 281 270 213 217 258 233 184 207 133 156 151 180 169 153 165 203 219 239 220 229 248 275 275 271 269 190 216 230 252 272 270 268 266 263 264 259 242
289 302 316 321 321 322 330 320 238 204 206 233 270 269 193 85 166 184 162 168 173 214 216 197 220 231 238 230 250 276 282 277 273 267 214 243 256 265 273 274 273 270 269 257 254
274 291 310 313 317 314 289 281 47 13 290 243 255 263 231 188 240 194 174 188 192 219 215 202 233 248 272 290 268 261 264 268 275 291 207 266 267 268 269 265 270 272 270 269 266
270 279 303 312 322 298 296 360 336 239 249 220 220 240 233 187 231 211 184 202 213 230 222 237 251 105 263 247 249 248 252 260 265 269 219 269 270 253 246 252 259 264 261 267 257
262 274 291 317 288 345 287 10 234 271 263 220 197 176 159 200 250 125 210 216 205 244 237 253 259 264 253 251 255 260 270 256 265 274 266 134 285 274 288 261 229 265 274 261 230
243 263 275 12 315 316 354 325 305 249 273 111 154 96 149 215 62 173 152 198 231 203 191 227 227 222 236 248 254 253 311 254 257 257 279 260 269 266 201 260 240 244 257 270 211
226 226 174 220 225 210 10 318 279 244 249 190 154 173 174 201 195 116 196 232 319 242 236 258 65 232 239 104 241 105 251 244 229 260 251 250 242 287 204 205 232 251 259 231 185
215 206 192 186 298 109 126 173 258 235 48 196 211 187 203 196 200 192 177 192 193 186 220 222 226 195 182 196 170 203 211 261 242 223 264 267 257 262 280 225 238 258 263 150 175
213 198 202 213 176 153 180 200 239 235 228 88 333 212 213 180 225 204 203 223 226 235 278 230 237 196 193 219 217 198 210 221 269 270 285 53 264 259 233 238 242 248 250 180 192
221 196 216 202 182 178 192 213 238 229 249 261 222 244 221 225 252 198 216 225 217 203 213 208 244 133 178 164 196 160 207 282 276 140 278 261 261 251 168 195 220 215 203 224 217
237 213 218 169 159 141 237 233 247 223 270 281 236 218 244 229 199 196 214 225 237 205 228 246 263 159 133 170 210 238 84 193 197 270 264 279 281 271 249 229 217 233 236 252 221
242 242 152 144 126 155 204 231 267 258 267 265 256 262 253 246 245 231 240 256 218 213 210 238 233 214 137 201 196 181 221 216 295 233 256 277 265 78 101 103 140 215 225 244 227
220 251 156 150 192 182 208 213 226 263 282 300 278 276 266 262 259 253 242 248 207 179 194 215 254 233 232 226 277 260 230 216 220 230 228 249 272 121 233 131 156 180 205 245 239
235 210 211 185 206 207 230 230 237 251 242 209 239 243 285 289 299 280 263 262 272 191 216 165 216 240 262 237 174 212 226 243 235 253 245 239 256 179 262 255 223 229 234 221 224
272 234 184 260 243 240 216 223 227 232 242 230 211 270 270 261 255 267 266 274 257 267 23 147 212 236 239 249 269 209 223 221 225 231 244 240 259 275 268 276 279 279 272 262 241
242 233 185 198 236 238 234 227 237 233 217 199 210 210 207 233 245 245 247 256 266 91 2 260 248 241 247 261 270 273 269 250 232 239 241 258 253 261 277 269 275 286 283 280 278
290 302 293 289 224 211 219 221 231 239 229 228 224 220 212 223 214 257 235 232 237 168 255 235 245 244 248 252 262 264 262 259 256 247 245 249 265 261 261 274 273 272 274 284 280
341 337 65 279 278 255 224 223 230 231 239 234 239 235 228 218 223 235 245 255 213 202 196 204 210 219 239 234 245 254 242 247 255 253 247 247 245 257 267 258 258 268 281 278 280